CAPE
50 90 104 141 165 92 162 58 0 0 0 0 6 18 1 0 6 11 0 0 0 1 11 0 1 10 20 96 300 392 64 0 946 1493 1797 1931 1936 1946 1954 1969 1979 1991 1975 1936 1900 1850 1773 1691 1652 1619 1591 1590 1602 1609 1581 1542 1533 1497 1434 1363 1292 1325 1376 1167 1096 1094 1069 978 880 864 840 860 734 586 457 391 381 362 314 0 0 0 0 0 0 0 0
71 105 80 64 68 216 273 168 0 0 0 0 2 5 0 0 0 0 6 2 0 0 0 0 0 0 14 42 456 450 406 62 555 1783 1860 1954 1946 1942 1946 1947 1967 1971 1936 1906 1874 1826 1728 1672 1643 1610 1598 1601 1588 1588 1584 1542 1522 1461 1436 1459 1417 1305 1250 1215 1192 1175 1157 1089 959 918 922 764 599 496 425 398 373 283 163 0 37 234 221 0 0 0 0
6 0 62 3 2 34 259 268 42 0 0 0 0 0 0 0 0 0 10 16 32 5 0 1 0 12 26 150 412 701 552 343 578 1565 1872 2006 1962 1989 1961 1940 1933 1916 1876 1849 1826 1747 1684 1646 1639 1601 1598 1608 1568 1535 1545 1557 1582 1541 1488 1506 1478 1410 1357 1312 1276 1252 1238 1194 1074 917 850 637 535 480 404 411 309 85 52 58 235 268 10 0 0 0 119
0 15 58 14 78 97 54 294 94 0 0 0 4 0 0 0 0 0 0 0 6 0 0 0 0 0 0 169 586 867 748 537 657 1626 1709 1814 1840 1918 1899 1882 1851 1841 1817 1787 1795 1767 1715 1692 1649 1621 1591 1583 1522 1489 1463 1479 1550 1576 1548 1544 1520 1462 1388 1358 1339 1297 1246 1183 1078 906 777 619 552 508 456 405 309 132 0 0 207 203 0 0 0 0 230
0 5 0 18 48 0 0 0 0 0 0 0 11 3 0 0 0 0 1 1 2 0 11 0 0 11 0 39 595 808 966 1046 863 1495 1818 1787 1842 1862 1850 1805 1785 1816 1836 1816 1820 1828 1778 1700 1673 1638 1593 1511 1467 1439 1398 1421 1464 1531 1574 1599 1574 1508 1453 1437 1410 1348 1296 1197 1051 886 730 635 575 485 462 423 418 278 195 66 44 165 0 0 0 123 281
0 0 0 0 9 1 17 131 0 0 123 3 0 0 0 1 0 0 0 0 1 196 12 2 8 0 9 28 270 517 837 901 1112 1309 1758 1856 1806 1811 1816 1820 1784 1827 1854 1810 1833 1804 1754 1722 1689 1647 1539 1490 1468 1441 1412 1399 1464 1493 1495 1574 1622 1623 1562 1508 1471 1427 1328 1176 954 959 828 608 522 456 422 501 488 376 255 212 180 0 0 0 0 0 251
2 0 0 2 6 12 5 12 23 351 356 213 1 0 2 0 0 0 0 0 2 0 2 6 1 26 52 16 48 32 430 554 352 1184 1671 1802 1794 1672 1661 1682 1720 1791 1867 1835 1823 1788 1755 1734 1658 1593 1539 1490 1461 1442 1388 1400 1452 1470 1475 1538 1618 1665 1645 1581 1548 1506 1361 1163 915 1002 924 648 504 493 491 420 382 360 324 267 213 175 0 18 0 0 88
2 4 10 9 82 19 9 4 81 399 446 524 400 298 300 360 726 0 0 0 0 0 64 0 18 79 61 3 18 7 48 58 224 170 1353 1663 1826 1822 1776 1802 1791 1842 1866 1850 1858 1860 1817 1725 1670 1636 1621 1560 1497 1446 1350 1392 1430 1497 1508 1549 1583 1633 1672 1667 1607 1527 1442 1284 966 969 975 734 540 517 535 502 385 332 314 290 217 188 159 65 16 0 0
0 0 13 14 9 2 3 45 2 56 309 360 648 469 429 284 719 880 484 0 0 0 0 0 1 0 0 0 1 0 5 37 57 608 1352 1816 2012 1904 1898 1902 1883 1866 1873 1878 1843 1819 1772 1732 1725 1669 1606 1533 1505 1444 1400 1431 1453 1506 1532 1522 1518 1529 1528 1529 1527 1489 1407 1253 1001 854 869 755 576 562 584 581 474 374 264 242 246 201 122 125 108 21 0
0 2 14 8 0 0 2 6 16 26 194 107 178 377 601 619 812 988 1133 1057 888 645 0 0 0 0 0 0 0 1 0 0 0 394 1216 1774 1898 2015 2017 2003 1958 1875 1836 1793 1806 1880 1840 1767 1723 1648 1567 1514 1501 1472 1457 1458 1488 1520 1505 1447 1414 1415 1445 1458 1470 1449 1373 1220 1044 898 769 730 653 646 630 617 594 500 327 196 144 157 169 168 205 212 162
0 8 0 1 8 3 0 16 17 55 14 81 47 158 212 640 832 773 1054 1033 1062 1133 832 521 63 0 1 0 0 0 0 25 0 6 921 1051 1202 1671 2073 2017 1934 1892 1921 1886 1861 1862 1848 1764 1703 1635 1564 1513 1468 1458 1443 1454 1475 1456 1385 1371 1365 1405 1474 1491 1486 1427 1393 1298 1194 984 789 750 670 714 746 681 694 610 415 226 192 177 187 207 243 276 240
1 0 0 9 0 0 0 1 21 40 6 21 20 0 2 474 829 861 872 881 956 902 746 690 202 0 0 0 0 0 0 307 346 0 602 993 938 1377 1872 1954 1890 1959 2019 1923 1801 1734 1752 1773 1712 1639 1544 1482 1437 1434 1455 1456 1480 1480 1407 1382 1412 1421 1475 1537 1498 1457 1431 1135 1021 860 757 856 654 573 755 806 765 717 416 211 223 212 238 251 106 53 58
16 0 1 0 0 0 0 0 12 10 41 18 2 0 184 319 655 886 749 702 857 799 765 672 145 0 0 0 0 0 7 200 828 234 758 1107 955 1132 1644 1994 1917 1892 1998 1974 1908 1809 1763 1736 1686 1613 1553 1511 1466 1465 1464 1445 1463 1472 1443 1366 1368 1443 1507 1501 1478 1534 1434 1359 1201 963 931 762 593 490 684 866 802 681 384 231 209 255 298 227 76 107 105
0 0 3 0 0 0 0 0 2 83 109 132 5 23 171 365 537 734 688 876 882 593 885 696 749 560 233 538 727 658 0 51 932 904 407 940 1318 1390 1656 1950 1999 1998 2067 2063 2000 1912 1771 1671 1656 1606 1566 1509 1486 1456 1446 1411 1387 1393 1452 1427 1418 1446 1468 1478 1417 1212 1252 1349 1025 868 782 633 514 499 680 897 820 656 474 330 286 316 54 88 95 74 116
0 1 0 0 1 0 0 0 0 0 65 123 92 11 28 109 402 475 631 894 794 827 727 883 975 971 1022 788 992 988 633 524 798 1154 1062 674 381 948 1598 1885 1984 1870 1926 2009 1988 1870 1747 1654 1589 1592 1529 1494 1449 1436 1416 1392 1342 1349 1422 1447 1437 1428 1413 1381 1460 1347 1272 1089 880 849 715 607 440 493 731 884 792 636 482 461 388 386 369 362 324 184 190
0 1 0 9 2 0 1 6 2 1 65 70 42 25 49 49 202 267 525 755 778 798 800 901 1172 1287 1101 1098 1065 1228 1021 843 922 692 798 1100 1281 581 282 1005 1733 1874 1803 1830 1873 1820 1774 1728 1670 1586 1534 1506 1473 1451 1443 1382 1340 1356 1420 1464 1487 1425 1354 1336 1349 1247 980 878 865 774 690 496 484 577 765 852 688 596 592 474 426 449 441 383 336 284 295
2 10 2 0 0 0 1 5 7 4 8 10 22 14 13 18 50 397 477 709 676 672 641 872 1327 1407 1307 1164 1116 1338 1464 1310 1190 991 772 973 1091 1130 945 674 1125 1430 1652 1772 1767 1796 1767 1706 1648 1598 1534 1507 1485 1446 1448 1410 1403 1426 1469 1492 1497 1475 1452 1438 1348 966 794 840 850 815 719 547 628 722 728 678 618 588 518 463 469 461 431 379 313 271 226
4 12 1 0 0 0 0 6 19 16 4 1 16 0 1 38 0 334 505 640 745 597 661 677 1020 1191 1457 1359 1264 1247 1432 1411 1292 1100 1023 876 929 1176 828 910 1035 1334 1552 1650 1764 1791 1775 1724 1701 1672 1615 1541 1522 1488 1458 1430 1416 1447 1481 1518 1493 1442 1396 1385 1205 962 909 857 742 882 809 682 672 659 628 576 561 521 439 474 479 428 374 335 318 302 314
6 0 0 0 0 0 0 3 10 6 0 21 34 4 0 85 81 11 316 523 608 609 560 581 616 805 1207 1389 1395 1299 1187 1158 1158 1060 841 787 729 879 1055 950 1278 1280 1380 1614 1688 1758 1742 1748 1736 1680 1668 1494 1389 1436 1438 1429 1428 1470 1489 1430 1363 1335 1334 1249 973 630 765 797 832 883 867 838 765 717 648 586 580 596 558 451 384 322 297 308 364 388 221
0 0 0 0 0 0 1 19 42 23 20 1 3 28 2 14 21 122 8 24 266 499 591 531 523 517 720 952 1034 1197 1177 1017 947 928 748 677 661 658 743 857 986 1354 1517 1628 1649 1658 1613 1616 1538 1433 1253 1308 1228 1338 1464 1478 1426 1350 1270 1213 1213 1233 1185 1117 1018 886 819 862 832 815 870 791 837 768 584 617 653 652 568 460 386 346 334 325 331 364 415
0 2 0 28 12 1 1 210 6 5 9 1 1 1 0 2 9 1 52 103 33 328 425 480 412 466 564 723 884 1094 1032 1015 896 734 558 646 731 741 670 841 881 928 942 1055 1077 938 845 715 1004 1168 830 984 1276 1406 1397 1297 1228 1285 1330 1282 1261 1199 1091 995 1004 899 733 671 729 743 735 629 645 527 614 715 721 662 559 460 351 338 344 359 347 230 197
0 0 0 2 5 0 0 4 0 0 6 15 0 0 24 21 2 0 2 6 5 0 66 296 481 471 553 592 661 761 859 962 858 777 666 698 737 727 568 694 912 803 973 845 814 1048 870 733 726 871 940 1112 1252 1324 1267 1201 1138 1181 1261 1327 1301 1139 853 805 748 643 654 682 633 540 464 399 408 493 666 790 727 572 550 400 310 273 279 274 205 114 46
0 0 0 0 13 12 0 2 3 20 42 0 0 0 0 1 0 0 0 0 0 21 27 384 418 558 561 572 614 619 702 682 664 717 741 781 718 558 563 841 798 552 440 546 676 716 352 532 528 422 568 967 1156 1188 1146 1108 1076 1034 1137 1074 922 869 820 628 573 589 642 598 487 420 526 586 600 714 810 805 692 598 447 377 312 221 169 86 64 33 12
0 0 0 0 2 18 78 0 8 155 264 0 0 0 0 0 0 0 0 0 566 631 589 120 247 412 590 602 541 550 532 578 638 748 669 419 523 525 676 647 470 592 396 143 110 86 376 371 458 494 588 864 1160 1043 1115 1144 1122 998 876 868 831 806 772 678 622 642 619 524 467 430 461 525 623 625 596 556 395 274 306 254 161 70 34 22 16 6 6
0 0 0 0 2 51 116 129 165 202 136 0 0 22 0 0 0 0 2 45 107 658 690 473 404 405 411 554 594 465 417 616 730 692 389 387 378 481 536 514 455 512 464 359 343 410 429 472 602 464 815 950 1061 1016 1028 1082 909 789 724 707 753 810 792 768 754 646 622 563 625 597 648 683 636 618 625 566 519 445 300 133 46 16 18 23 3 3 4
0 0 0 0 2 73 144 209 247 282 184 0 0 0 0 0 0 0 0 0 350 740 656 721 566 496 491 460 550 542 506 514 653 690 586 392 258 403 584 637 478 472 361 400 439 451 634 799 589 878 1033 1123 984 980 928 933 890 845 738 687 745 843 838 803 828 793 706 601 503 509 678 740 732 711 580 490 461 442 349 228 155 0 21 26 1 3 2
0 0 0 0 0 0 2 97 287 146 0 0 0 0 0 0 0 5 1 0 193 652 700 698 686 427 352 346 352 341 401 95 148 288 24 301 0 0 0 90 219 377 322 473 433 468 712 800 680 857 950 1008 946 882 886 874 893 900 861 891 941 898 925 969 959 937 929 843 719 611 612 692 761 767 761 643 584 480 363 271 180 35 72 100 122 109 73
0 0 0 1 1 0 0 0 29 159 220 1 1 2 4 0 0 40 21 263 583 688 756 836 723 614 467 340 321 262 311 406 330 61 120 493 59 297 402 27 467 557 612 545 554 543 832 854 757 783 798 906 879 898 904 915 870 864 784 823 895 899 881 870 866 865 859 831 794 728 679 647 528 662 635 680 696 488 383 269 146 109 152 197 138 128 146
0 0 0 28 18 0 38 0 0 105 87 0 0 0 98 0 0 2 55 141 477 621 799 881 880 833 787 746 655 487 484 415 348 340 388 448 515 579 520 395 456 584 572 658 814 788 883 811 706 650 710 797 809 861 879 889 849 774 719 710 772 818 818 850 843 748 683 716 735 675 628 552 546 508 551 434 176 99 143 59 110 125 114 118 92 98 82
0 0 0 0 0 0 10 8 1 0 0 86 0 0 4 0 0 73 10 217 292 439 631 692 774 845 898 1032 1082 1121 1085 960 903 844 665 440 466 620 636 494 476 519 514 609 838 954 884 1037 967 964 884 895 876 876 852 835 726 648 617 615 597 642 637 659 703 737 744 758 654 553 422 406 397 246 11 20 24 8 22 13 22 44 56 34 4 0 0
0 0 0 0 0 0 5 5 0 0 173 0 0 0 11 98 141 330 284 256 258 279 334 566 638 742 827 924 966 984 1006 1026 1043 1084 1096 1045 880 488 630 548 527 578 447 478 543 772 1014 1098 1057 1054 1031 981 952 916 849 795 677 529 429 456 571 671 613 567 540 481 471 430 412 379 248 67 67 69 58 12 7 19 42 9 4 4 0 1 1 1 3
0 0 0 0 0 0 0 0 81 175 138 0 0 0 0 7 342 323 304 264 194 248 79 100 522 654 717 727 716 697 753 899 922 894 882 912 906 904 645 456 329 332 441 409 625 832 963 1084 1111 1142 1098 1051 956 886 729 608 417 406 504 569 574 550 518 491 455 401 317 246 176 87 141 116 69 18 0 0 0 21 12 6 3 4 4 3 3 8 6
0 0 0 0 0 0 0 11 123 153 24 0 0 0 0 0 0 194 86 0 10 238 185 164 187 504 623 734 736 673 626 628 756 776 756 727 728 730 756 759 602 437 477 519 561 690 795 946 1146 1115 1027 886 892 670 511 458 512 572 605 604 548 494 417 347 293 279 266 256 232 174 18 4 0 0 0 0 2 4 2 2 2 3 3 3 2 2 1
0 0 0 0 0 0 0 0 0 2 4 0 0 0 0 0 0 0 0 0 80 170 250 288 326 327 450 624 717 682 634 611 611 654 632 649 622 615 653 722 628 608 654 689 598 671 894 996 994 904 781 595 682 546 528 578 643 627 585 553 481 424 380 328 307 292 205 84 22 0 0 0 0 0 0 0 0 0 1 1 1 3 3 4 3 2 0
0 0 0 0 0 0 0 0 0 0 0 0 0 0 0 0 0 0 0 0 0 0 39 203 217 244 383 411 550 553 487 484 528 621 656 643 607 563 584 557 538 557 628 590 682 677 635 647 588 672 585 598 573 492 529 562 562 501 415 345 321 303 268 208 136 9 6 14 11 4 0 0 0 0 0 0 0 0 0 0 1 1 1 1 1 1 2
0 0 0 0 0 0 0 50 0 0 0 0 0 0 0 0 0 0 0 0 0 0 0 0 0 173 0 244 445 486 489 446 411 417 525 638 662 595 608 538 495 499 568 591 587 519 478 523 542 506 476 458 447 410 432 441 395 361 305 270 241 197 84 0 0 15 2 3 3 2 3 2 0 0 0 0 0 0 0 0 0 0 0 0 0 0 0
0 0 0 0 0 0 0 0 0 0 0 0 0 0 0 0 0 0 0 0 0 0 0 0 0 0 0 0 259 431 397 305 397 382 534 659 681 683 639 538 459 456 453 474 399 403 436 399 385 374 374 332 339 359 400 397 298 270 211 44 19 0 0 0 0 0 0 0 0 0 0 0 0 0 0 0 0 0 0 0 0 0 0 0 0 0 0
0 0 0 0 0 0 0 0 0 2 0 0 0 0 0 0 0 0 0 0 3 3 0 0 0 0 0 0 0 138 332 422 388 374 288 582 708 663 615 590 502 466 424 331 271 317 334 269 222 234 274 297 241 260 318 310 244 14 0 0 0 0 0 0 0 0 0 0 0 0 0 0 0 0 0 0 0 0 0 0 0 0 0 0 0 0 0
3 0 0 0 0 0 0 0 0 0 2 2 1 0 1 0 0 0 0 0 0 0 0 0 0 0 0 0 0 0 47 268 288 286 289 434 568 560 556 524 471 402 406 247 2 0 255 225 178 0 0 0 0 0 0 22 226 185 37 0 0 0 0 0 0 0 0 0 0 0 0 0 0 0 0 0 0 0 0 0 0 0 0 2 0 0 0
10 1 0 0 0 0 0 0 0 0 0 9 0 3 6 5 2 0 0 0 0 0 0 0 0 2 0 0 0 0 0 107 271 258 293 309 365 331 322 308 305 316 157 0 0 0 0 333 301 247 196 0 45 256 49 0 78 184 153 62 0 0 0 0 0 0 0 0 0 0 0 0 0 0 0 0 0 0 0 0 2 3 8 0 0 0 0
9 5 0 6 0 0 0 0 0 0 0 1 0 1 0 2 3 0 0 0 0 0 0 0 0 0 0 0 0 0 0 0 63 239 236 222 277 312 294 293 264 295 279 184 0 0 0 0 211 253 221 109 2 133 281 268 201 0 110 117 0 0 0 0 0 0 0 0 0 0 0 0 0 0 1 4 6 6 1 2 2 3 1 4 2 0 0
5 2 32 61 46 97 2 1 0 0 0 0 3 0 0 0 0 2 2 1 0 0 0 0 0 0 0 0 0 0 0 0 0 154 148 157 218 278 296 258 237 218 220 0 0 0 0 0 0 0 0 0 0 0 0 6 15 6 32 2 0 0 1 2 0 0 0 0 0 0 0 0 0 0 0 1 6 5 2 0 1 0 2 3 4 1 0
2 20 38 44 38 21 14 5 0 0 0 3 0 0 0 0 3 0 1 0 0 0 0 0 0 0 0 0 0 3 6 12 33 123 94 61 78 76 155 175 154 184 168 174 0 0 29 94 13 0 0 0 0 0 0 1 0 0 0 0 0 3 14 6 3 1 2 6 10 10 4 0 0 0 0 0 1 1 0 0 0 0 1 4 0 0 0
11 24 30 19 48 34 1 6 7 3 14 2 0 0 0 0 0 0 0 0 0 0 0 0 0 0 0 0 7 26 47 92 112 147 68 20 15 11 37 131 135 152 138 139 92 52 22 43 52 68 88 51 26 25 15 12 13 0 0 0 0 3 5 2 2 4 10 14 13 7 2 0 0 1 6 7 5 3 3 5 5 5 5 4 3 1 0
14 35 30 55 18 32 3 3 7 20 9 0 0 0 1 0 0 0 0 0 0 0 0 0 0 0 0 0 13 25 28 26 27 18 12 18 18 17 16 39 76 81 49 33 31 28 40 57 66 67 66 37 16 14 12 8 12 5 3 12 13 12 12 10 10 12 15 10 10 9 4 1 3 7 10 11 9 15 11 10 8 5 5 6 4 3 4
4 8 11 4 20 7 1 19 21 3 0 0 0 0 0 0 0 0 0 0 0 0 0 0 1 0 0 0 17 15 19 0 0 2 1 4 14 7 22 21 24 26 22 18 23 32 34 34 40 47 36 32 24 21 12 5 8 21 11 8 7 9 10 14 15 16 14 14 12 13 14 14 14 11 12 14 15 14 8 7 7 8 7 8 7 4 2
9 6 16 21 10 1 1 0 0 4 6 8 4 3 4 1 0 0 0 0 0 1 1 0 1 2 2 3 1 2 2 0 0 0 0 0 4 17 22 24 20 24 27 39 34 27 15 19 20 24 23 20 10 4 7 15 10 12 12 6 26 30 26 20 16 15 16 16 16 16 19 19 10 4 5 9 6 2 4 3 3 3 2 6 2 2 1
4 2 10 9 5 5 1 0 0 2 1 0 0 0 0 0 0 0 0 0 0 0 0 2 1 6 7 5 5 1 0 0 0 0 0 0 0 0 0 14 8 18 18 22 23 6 22 24 24 14 10 7 1 12 16 15 9 7 10 17 24 22 20 16 15 16 18 22 26 26 26 20 3 1 4 1 10 10 10 8 2 7 8 0 0 6 11
32 8 6 6 1 0 0 0 0 0 0 0 1 0 0 0 0 0 0 0 0 3 6 6 2 1 3 2 0 0 0 0 0 0 0 0 0 0 0 0 0 0 0 3 11 16 14 12 9 5 8 8 8 9 6 6 7 6 11 8 9 12 14 9 10 14 16 26 23 22 14 4 2 8 5 9 15 18 17 10 3 0 5 9 10 2 2
2 0 0 0 0 1 8 5 0 0 0 5 6 3 0 0 0 0 0 0 0 0 0 0 0 0 0 0 0 0 0 0 0 0 0 0 0 0 0 0 0 0 0 0 0 3 7 7 1 0 0 0 0 4 6 8 7 8 9 9 10 14 18 10 7 6 21 24 23 20 7 3 1 0 0 10 12 10 5 4 0 1 8 11 13 8 2
0 0 0 0 0 2 1 0 0 0 9 12 8 6 3 2 2 1 2 0 0 0 0 0 0 0 0 0 0 0 0 0 0 0 0 0 0 0 0 0 0 0 0 0 0 0 0 0 0 0 0 0 0 1 6 8 10 11 12 14 16 18 9 15 16 6 2 2 16 12 7 5 1 0 0 3 4 11 18 8 4 2 1 5 1 0 1
0 0 0 0 2 0 0 0 0 0 0 3 11 8 5 6 8 6 2 3 8 2 0 2 1 0 0 0 0 0 0 0 0 0 0 0 0 0 0 0 0 0 0 0 0 0 0 0 0 0 0 0 0 0 1 5 5 6 8 10 12 11 11 13 15 10 6 4 3 2 2 1 0 10 5 4 0 0 5 17 19 4 1 1 2 2 0
Wind_Speed
nan nan 20 22 20 nan 21 nan nan nan nan nan nan nan nan nan nan nan nan nan nan nan nan nan nan nan nan nan 49 55 nan nan 43 34 30 25 21 18 18 19 17 15 15 15 16 19 23 25 26 26 27 27 26 26 26 25 24 21 20 20 21 22 23 23 21 21 20 21 20 20 21 21 21 21 21 22 22 22 23 nan nan nan nan nan nan nan nan
nan 15 nan nan nan 19 20 19 nan nan nan nan nan nan nan nan nan nan nan nan nan nan nan nan nan nan nan nan 48 52 52 nan 33 31 27 25 21 18 17 17 17 16 15 16 16 19 22 23 25 26 27 26 24 23 24 24 23 21 20 19 21 22 23 23 22 22 21 21 21 21 21 21 21 22 22 23 23 22 23 nan nan 22 20 nan nan nan nan
nan nan nan nan nan nan 17 23 nan nan nan nan nan nan nan nan nan nan nan nan nan nan nan nan nan nan nan 51 53 52 47 43 31 24 23 25 21 18 17 16 17 18 18 19 21 21 21 22 23 26 26 25 23 23 24 24 21 19 18 19 20 22 23 23 23 23 22 21 21 21 20 20 21 22 22 23 23 nan nan nan 23 21 nan nan nan nan 19
nan nan nan nan nan nan nan 20 nan nan nan nan nan nan nan nan nan nan nan nan nan nan nan nan nan nan nan 51 51 50 46 45 40 22 22 23 23 21 21 21 20 20 21 23 23 21 21 22 23 26 26 25 25 23 23 22 21 20 18 19 21 23 24 24 23 23 22 22 22 21 21 21 21 22 22 22 23 22 nan nan 22 21 nan nan nan nan 21
nan nan nan nan nan nan nan nan nan nan nan nan nan nan nan nan nan nan nan nan nan nan nan nan nan nan nan nan 48 45 45 44 45 36 23 23 23 23 24 24 21 19 19 20 19 19 21 23 23 23 24 25 23 23 23 22 24 21 20 21 23 25 25 24 23 23 23 23 23 22 21 22 22 22 21 22 23 23 21 nan nan 22 nan nan nan 23 24
nan nan nan nan nan nan nan 19 nan nan 30 nan nan nan nan nan nan nan nan nan nan 31 nan nan nan nan nan nan 47 43 42 44 44 46 46 42 33 25 24 22 21 18 18 19 18 19 21 22 22 24 24 23 23 24 25 26 23 22 23 24 25 26 26 24 23 23 23 24 23 22 22 23 22 21 20 21 23 22 22 22 22 nan nan nan nan nan 26
nan nan nan nan nan nan nan nan nan 36 36 34 nan nan nan nan nan nan nan nan nan nan nan nan nan nan nan nan nan nan 42 41 39 41 43 41 45 41 32 26 24 22 21 22 23 23 24 25 28 28 27 28 29 28 26 26 25 25 26 27 27 27 25 24 24 23 23 23 24 23 23 23 21 19 19 21 23 22 22 23 23 23 nan nan nan nan nan
nan nan nan nan nan nan nan nan nan 38 37 37 35 30 22 25 27 nan nan nan nan nan nan nan nan nan nan nan nan nan nan nan 35 27 30 39 39 34 31 29 26 26 25 23 21 19 22 25 27 26 27 28 28 27 27 27 27 28 28 28 27 27 25 24 24 23 23 23 24 24 23 22 20 18 18 21 22 22 23 23 24 25 25 nan nan nan nan
nan nan nan nan nan nan nan nan nan nan 32 32 31 23 17 20 24 21 16 nan nan nan nan nan nan nan nan nan nan nan nan nan nan 23 18 24 26 28 31 28 25 23 22 20 20 24 25 25 26 27 30 30 29 29 28 28 28 29 30 29 26 25 24 23 23 23 24 25 25 24 24 22 19 18 19 20 21 23 24 25 27 27 28 28 30 nan nan
nan nan nan nan nan nan nan nan nan nan 21 28 26 25 20 17 20 16 15 12 8 10 nan nan nan nan nan nan nan nan nan nan nan 30 22 22 25 27 31 34 29 27 24 25 27 24 23 23 26 30 31 30 29 28 27 28 28 30 30 28 26 24 23 23 24 24 25 26 26 25 24 23 21 19 20 21 23 24 26 28 29 29 30 30 31 32 34
nan nan nan nan nan nan nan nan nan nan nan nan nan 28 23 24 24 17 14 7 3 4 7 14 nan nan nan nan nan nan nan nan nan nan 22 19 16 17 19 20 19 21 21 21 23 24 25 26 28 29 30 30 30 27 27 26 28 31 28 26 25 23 23 24 25 26 26 26 26 25 25 25 24 23 23 22 24 26 28 30 30 31 31 32 32 32 33
nan nan nan nan nan nan nan nan nan nan nan nan nan nan nan 28 29 20 16 12 9 6 8 14 17 nan nan nan nan nan nan 25 24 nan 18 17 15 14 18 21 18 17 19 23 23 22 22 22 26 29 31 31 29 26 25 27 29 29 26 25 26 26 25 25 27 28 27 24 25 27 26 24 24 25 26 26 26 28 30 30 31 31 31 32 34 nan nan
nan nan nan nan nan nan nan nan nan nan nan nan nan nan 20 27 24 19 17 15 12 7 7 8 12 nan nan nan nan nan nan 29 28 21 15 11 12 14 15 16 18 20 19 19 17 16 17 22 28 30 31 30 28 26 26 27 27 27 27 29 29 28 28 29 28 28 28 26 25 25 25 24 25 25 25 27 30 31 31 30 32 32 32 33 nan 35 35
nan nan nan nan nan nan nan nan nan nan 20 22 nan nan 19 20 19 17 17 14 12 13 8 3 9 21 31 31 31 31 nan nan 21 17 13 13 15 14 11 12 17 19 18 17 17 18 21 24 26 29 29 29 27 26 26 25 27 30 30 30 31 31 30 29 30 29 28 27 28 26 24 25 26 25 25 28 31 31 31 32 33 33 nan nan nan nan 33
nan nan nan nan nan nan nan nan nan nan nan 17 nan nan nan 22 19 18 18 16 14 18 17 11 9 17 24 25 29 28 30 29 29 29 27 20 10 11 16 18 16 18 18 18 20 22 25 25 27 28 28 28 28 27 26 27 31 31 31 32 32 31 30 29 28 28 30 30 27 25 24 26 28 28 28 29 29 31 33 34 34 33 32 31 32 32 32
nan nan nan nan nan nan nan nan nan nan nan nan nan nan nan nan 20 20 21 18 17 18 19 18 17 14 19 19 19 21 24 27 26 25 26 30 35 26 13 11 13 17 18 20 24 27 29 28 29 29 28 29 30 29 28 33 34 33 34 34 33 31 30 30 30 32 32 30 27 26 28 29 30 31 30 30 31 32 33 34 33 32 30 30 30 31 31
nan nan nan nan nan nan nan nan nan nan nan nan nan nan nan nan nan 22 22 21 22 21 21 22 23 21 17 17 16 16 14 19 24 28 29 31 32 35 32 20 18 20 21 24 29 32 32 31 31 31 31 32 33 33 35 35 35 35 35 35 34 31 30 29 29 32 32 29 27 28 28 30 31 30 30 31 32 32 33 32 32 31 30 29 29 30 33
nan nan nan nan nan nan nan nan nan nan nan nan nan nan nan nan nan 22 21 22 23 24 26 27 27 24 20 19 20 21 18 17 20 25 31 34 37 39 40 39 31 26 26 29 33 34 34 33 33 33 34 36 35 37 38 37 36 38 38 37 34 31 29 28 29 33 31 28 27 28 29 27 29 29 31 31 31 31 32 32 31 31 31 30 31 33 36
nan nan nan nan nan nan nan nan nan nan nan nan nan nan nan nan nan nan 24 24 26 28 29 30 28 24 22 23 25 26 28 29 28 29 32 35 36 36 34 35 39 36 31 31 33 36 36 36 37 39 41 43 44 42 39 39 39 37 37 36 33 31 29 30 32 31 30 27 28 29 28 28 28 28 28 30 32 32 32 33 33 33 34 35 36 37 39
nan nan nan nan nan nan nan nan nan nan nan nan nan nan nan nan nan 22 nan nan 27 34 34 32 29 23 23 26 29 31 33 35 34 35 35 32 33 34 36 34 33 44 49 42 39 42 44 46 50 51 50 45 41 39 38 38 37 35 34 32 31 29 29 29 29 29 28 30 30 28 27 27 29 29 28 30 32 33 34 35 36 36 36 37 38 39 40
nan nan nan nan nan nan nan 3 nan nan nan nan nan nan nan nan nan nan nan 19 nan 31 31 30 27 25 29 30 32 35 36 38 37 36 36 36 33 33 37 35 34 35 43 49 49 47 47 47 45 42 38 36 34 36 36 36 34 34 32 32 33 32 30 29 28 28 28 27 27 27 27 27 28 29 30 31 32 32 32 35 37 39 39 39 40 40 41
nan nan nan nan nan nan nan nan nan nan nan nan nan nan nan nan nan nan nan nan nan nan nan 25 23 24 30 32 36 40 40 37 34 33 35 36 37 36 36 40 40 37 37 41 44 42 46 46 45 43 41 37 32 32 32 32 32 33 33 32 33 30 28 27 27 27 27 26 26 27 28 29 32 34 38 38 35 35 36 37 39 39 40 40 40 41 nan
nan nan nan nan nan nan nan nan nan nan nan nan nan nan nan nan nan nan nan nan nan nan nan 21 24 28 31 33 35 39 37 33 30 31 32 34 35 37 38 40 44 42 35 38 42 40 42 44 42 39 38 35 30 28 28 28 29 30 31 31 30 28 27 25 25 25 26 26 27 28 30 33 34 36 37 37 39 40 39 39 40 41 39 nan nan nan nan
nan nan nan nan nan nan nan nan nan 3 3 nan nan nan nan nan nan nan nan nan 8 8 12 19 23 29 32 31 31 35 33 31 32 35 35 35 32 36 40 40 41 39 36 35 38 nan 41 39 35 35 34 29 26 27 27 26 27 28 28 28 26 25 25 26 27 26 27 28 29 31 32 33 34 35 36 36 35 35 38 40 40 nan nan nan nan nan nan
nan nan nan nan nan nan 3 1 4 1 4 nan nan nan nan nan nan nan nan nan 16 16 18 19 21 25 27 28 28 29 30 29 31 34 35 36 37 41 43 43 42 40 37 34 34 35 37 34 29 26 24 22 22 24 24 25 26 26 26 27 28 27 27 27 26 27 27 28 29 30 32 33 33 34 35 35 36 36 36 37 nan nan nan nan nan nan nan
nan nan nan nan nan nan 4 8 7 3 1 nan nan nan nan nan nan nan nan nan 17 19 20 18 21 23 25 27 27 25 27 30 29 32 34 37 36 38 39 41 42 39 37 39 38 36 32 30 27 23 22 21 22 24 26 26 26 27 26 27 28 26 25 25 25 25 26 28 29 30 31 32 33 33 34 35 36 38 38 37 35 nan nan nan nan nan nan
nan nan nan nan nan nan nan nan 6 6 nan nan nan nan nan nan nan nan nan nan 18 18 19 18 17 20 24 25 25 26 24 nan 28 32 nan 36 nan nan nan nan 37 36 32 33 34 33 30 31 29 24 23 25 25 26 26 26 27 28 27 26 26 25 27 26 26 27 28 30 31 32 33 33 34 35 36 37 38 38 37 36 34 nan nan nan 33 33 nan
nan nan nan nan nan nan nan nan nan 8 11 nan nan nan nan nan nan nan nan 14 22 21 20 19 18 19 22 24 25 24 24 27 30 nan 28 27 nan 30 30 nan 32 34 32 33 37 37 33 32 29 27 28 27 27 27 27 26 26 26 26 26 27 26 26 28 29 29 30 31 31 32 33 34 35 37 37 39 39 38 35 33 32 32 33 34 35 34 33
nan nan nan nan nan nan nan nan nan 11 nan nan nan nan nan nan nan nan nan 13 16 21 23 20 18 18 18 22 25 26 25 30 32 24 17 17 23 27 26 25 25 29 31 32 34 39 37 34 30 28 27 25 25 26 27 28 28 29 29 29 30 29 29 29 29 30 31 32 32 33 35 37 37 36 37 38 38 nan 33 nan 31 32 34 36 nan nan nan
nan nan nan nan nan nan nan nan nan nan nan nan nan nan nan nan nan nan nan 18 19 22 20 21 23 21 18 20 21 23 24 24 24 19 14 14 19 22 24 22 21 19 21 25 30 33 33 30 26 23 23 25 27 29 31 31 32 32 32 31 31 30 29 31 32 34 35 34 35 37 38 36 35 36 nan nan nan nan nan nan nan nan nan nan nan nan nan
nan nan nan nan nan nan nan nan nan nan 14 nan nan nan nan nan 14 13 16 18 21 20 20 23 23 23 22 20 19 20 21 22 23 22 18 18 20 22 23 21 14 8 9 13 17 23 26 25 26 26 26 27 29 31 32 33 34 34 34 34 33 35 37 37 36 36 36 37 38 37 36 nan nan nan nan nan nan nan nan nan nan nan nan nan nan nan nan
nan nan nan nan nan nan nan nan nan 19 17 nan nan nan nan nan 15 14 14 18 20 21 nan 25 24 21 20 20 21 21 22 23 24 25 23 22 22 21 21 21 18 15 14 16 17 18 17 17 24 25 27 28 30 30 31 32 32 33 32 33 34 35 36 40 37 37 37 37 36 nan 34 35 nan nan nan nan nan nan nan nan nan nan nan nan nan nan nan
nan nan nan nan nan nan nan nan 21 19 nan nan nan nan nan nan nan 13 nan nan nan 22 24 23 22 21 21 23 23 23 23 24 25 26 26 26 25 23 22 21 21 18 16 18 19 17 15 14 18 22 25 24 23 27 29 31 31 32 32 33 34 36 36 36 38 37 36 36 34 34 nan nan nan nan nan nan nan nan nan nan nan nan nan nan nan nan nan
nan nan nan nan nan nan nan nan nan nan nan nan nan nan nan nan nan nan nan nan nan 19 18 21 22 22 23 24 23 22 23 25 26 25 26 27 27 26 24 23 21 21 19 21 22 22 20 19 19 23 23 22 22 26 29 31 31 32 33 34 35 35 35 35 36 35 35 nan nan nan nan nan nan nan nan nan nan nan nan nan nan nan nan nan nan nan nan
nan nan nan nan nan nan nan nan nan nan nan nan nan nan nan nan nan nan nan nan nan nan nan 18 20 22 23 23 24 24 25 25 24 25 25 25 27 27 26 25 24 24 24 22 22 22 21 21 21 24 24 26 27 29 30 32 32 32 31 32 33 33 34 35 35 nan nan nan nan nan nan nan nan nan nan nan nan nan nan nan nan nan nan nan nan nan nan
nan nan nan nan nan nan nan nan nan nan nan nan nan nan nan nan nan nan nan nan nan nan nan nan nan 22 nan 22 23 22 21 20 22 25 26 25 25 26 27 26 26 25 25 24 22 24 24 23 26 28 27 28 29 30 31 32 31 30 31 33 34 35 nan nan nan nan nan nan nan nan nan nan nan nan nan nan nan nan nan nan nan nan nan nan nan nan nan
nan nan nan nan nan nan nan nan nan nan nan nan nan nan nan nan nan nan nan nan nan nan nan nan nan nan nan nan 19 18 18 19 20 21 24 24 25 27 27 26 26 26 26 27 22 22 25 28 30 33 30 29 29 29 31 34 32 33 35 nan nan nan nan nan nan nan nan nan nan nan nan nan nan nan nan nan nan nan nan nan nan nan nan nan nan nan nan
nan nan nan nan nan nan nan nan nan nan nan nan nan nan nan nan nan nan nan nan nan nan nan nan nan nan nan nan nan 22 20 19 19 19 21 22 24 27 26 27 27 27 29 25 24 25 25 28 30 30 30 31 31 33 33 37 38 nan nan nan nan nan nan nan nan nan nan nan nan nan nan nan nan nan nan nan nan nan nan nan nan nan nan nan nan nan nan
nan nan nan nan nan nan nan nan nan nan nan nan nan nan nan nan nan nan nan nan nan nan nan nan nan nan nan nan nan nan nan 22 22 23 22 22 23 27 26 24 24 25 26 26 nan nan 27 26 25 nan nan nan nan nan nan nan 37 34 nan nan nan nan nan nan nan nan nan nan nan nan nan nan nan nan nan nan nan nan nan nan nan nan nan nan nan nan nan
nan nan nan nan nan nan nan nan nan nan nan nan nan nan nan nan nan nan nan nan nan nan nan nan nan nan nan nan nan nan nan 23 24 25 24 24 25 26 25 25 24 23 24 nan nan nan nan 34 31 30 28 nan nan 28 nan nan nan 31 30 nan nan nan nan nan nan nan nan nan nan nan nan nan nan nan nan nan nan nan nan nan nan nan nan nan nan nan nan
nan nan nan nan nan nan nan nan nan nan nan nan nan nan nan nan nan nan nan nan nan nan nan nan nan nan nan nan nan nan nan nan nan 26 25 28 28 28 29 26 21 22 23 25 nan nan nan nan 32 32 30 28 nan 30 30 30 30 nan 28 28 nan nan nan nan nan nan nan nan nan nan nan nan nan nan nan nan nan nan nan nan nan nan nan nan nan nan nan
nan nan nan nan nan nan nan nan nan nan nan nan nan nan nan nan nan nan nan nan nan nan nan nan nan nan nan nan nan nan nan nan nan 31 31 30 27 28 32 26 23 23 23 nan nan nan nan nan nan nan nan nan nan nan nan nan nan nan nan nan nan nan nan nan nan nan nan nan nan nan nan nan nan nan nan nan nan nan nan nan nan nan nan nan nan nan nan
nan nan nan nan nan nan nan nan nan nan nan nan nan nan nan nan nan nan nan nan nan nan nan nan nan nan nan nan nan nan nan nan nan 34 nan nan nan nan 27 25 26 26 29 30 nan nan nan nan nan nan nan nan nan nan nan nan nan nan nan nan nan nan nan nan nan nan nan nan nan nan nan nan nan nan nan nan nan nan nan nan nan nan nan nan nan nan nan
nan nan nan nan nan nan nan nan nan nan nan nan nan nan nan nan nan nan nan nan nan nan nan nan nan nan nan nan nan nan nan nan 33 33 nan nan nan nan nan 27 27 28 31 30 nan nan nan nan nan nan nan nan nan nan nan nan nan nan nan nan nan nan nan nan nan nan nan nan nan nan nan nan nan nan nan nan nan nan nan nan nan nan nan nan nan nan nan
nan nan nan nan nan nan nan nan nan nan nan nan nan nan nan nan nan nan nan nan nan nan nan nan nan nan nan nan nan nan nan nan nan nan nan nan nan nan nan nan nan nan nan nan nan nan nan nan nan nan nan nan nan nan nan nan nan nan nan nan nan nan nan nan nan nan nan nan nan nan nan nan nan nan nan nan nan nan nan nan nan nan nan nan nan nan nan
nan nan nan nan nan nan nan nan nan nan nan nan nan nan nan nan nan nan nan nan nan nan nan nan nan nan nan nan nan nan nan nan nan nan nan nan nan nan nan nan nan nan nan nan nan nan nan nan nan nan nan nan nan nan nan nan nan nan nan nan nan nan nan nan nan nan nan nan nan nan nan nan nan nan nan nan nan nan nan nan nan nan nan nan nan nan nan
nan nan nan nan nan nan nan nan nan nan nan nan nan nan nan nan nan nan nan nan nan nan nan nan nan nan nan nan nan nan nan nan nan nan nan nan nan nan nan nan nan nan nan nan nan nan nan nan nan nan nan nan nan nan nan nan nan nan nan nan nan nan nan nan nan nan nan nan nan nan nan nan nan nan nan nan nan nan nan nan nan nan nan nan nan nan nan
nan nan nan nan nan nan nan nan nan nan nan nan nan nan nan nan nan nan nan nan nan nan nan nan nan nan nan nan nan nan nan nan nan nan nan nan nan nan nan nan nan nan nan nan nan nan nan nan nan nan nan nan nan nan nan nan nan nan nan nan nan nan nan nan nan nan nan nan nan nan nan nan nan nan nan nan nan nan nan nan nan nan nan nan nan nan nan
nan nan nan nan nan nan nan nan nan nan nan nan nan nan nan nan nan nan nan nan nan nan nan nan nan nan nan nan nan nan nan nan nan nan nan nan nan nan nan nan nan nan nan nan nan nan nan nan nan nan nan nan nan nan nan nan nan nan nan nan nan nan nan nan nan nan nan nan nan nan nan nan nan nan nan nan nan nan nan nan nan nan nan nan nan nan nan
nan nan nan nan nan nan nan nan nan nan nan nan nan nan nan nan nan nan nan nan nan nan nan nan nan nan nan nan nan nan nan nan nan nan nan nan nan nan nan nan nan nan nan nan nan nan nan nan nan nan nan nan nan nan nan nan nan nan nan nan nan nan nan nan nan nan nan nan nan nan nan nan nan nan nan nan nan nan nan nan nan nan nan nan nan nan nan
nan nan nan nan nan nan nan nan nan nan nan nan nan nan nan nan nan nan nan nan nan nan nan nan nan nan nan nan nan nan nan nan nan nan nan nan nan nan nan nan nan nan nan nan nan nan nan nan nan nan nan nan nan nan nan nan nan nan nan nan nan nan nan nan nan nan nan nan nan nan nan nan nan nan nan nan nan nan nan nan nan nan nan nan nan nan nan
nan nan nan nan nan nan nan nan nan nan nan nan nan nan nan nan nan nan nan nan nan nan nan nan nan nan nan nan nan nan nan nan nan nan nan nan nan nan nan nan nan nan nan nan nan nan nan nan nan nan nan nan nan nan nan nan nan nan nan nan nan nan nan nan nan nan nan nan nan nan nan nan nan nan nan nan nan nan nan nan nan nan nan nan nan nan nan
Wind_Direction
nan nan 140 151 165 nan 179 nan nan nan nan nan nan nan nan nan nan nan nan nan nan nan nan nan nan nan nan nan 176 180 nan nan 186 201 235 243 246 245 248 248 241 234 242 249 245 238 237 236 239 241 239 242 244 244 246 247 246 250 253 259 261 263 265 268 272 275 274 278 282 284 287 285 281 278 280 282 285 289 291 nan nan nan nan nan nan nan nan
nan 137 nan nan nan 175 176 184 nan nan nan nan nan nan nan nan nan nan nan nan nan nan nan nan nan nan nan nan 180 181 183 nan 194 201 225 242 244 249 250 246 243 235 244 256 256 247 241 242 242 242 242 244 247 248 245 244 243 244 249 255 258 260 264 266 268 272 274 276 281 283 286 287 281 278 279 281 285 289 291 nan nan 289 291 nan nan nan nan
nan nan nan nan nan nan 179 180 nan nan nan nan nan nan nan nan nan nan nan nan nan nan nan nan nan nan nan 180 184 184 182 185 190 200 220 233 243 249 248 251 247 238 240 248 250 246 247 248 247 245 245 245 244 243 241 241 242 243 249 252 256 259 262 263 266 270 273 277 280 285 285 282 278 278 279 280 285 nan nan nan 286 286 nan nan nan nan 294
nan nan nan nan nan nan nan 193 nan nan nan nan nan nan nan nan nan nan nan nan nan nan nan nan nan nan nan 182 186 188 189 192 193 198 216 228 242 242 249 250 243 239 237 238 239 242 244 245 246 243 242 241 242 243 242 241 238 239 245 250 253 257 259 260 266 272 274 278 281 282 281 281 279 275 276 282 285 284 nan nan 280 279 nan nan nan nan 288
nan nan nan nan nan nan nan nan nan nan nan nan nan nan nan nan nan nan nan nan nan nan nan nan nan nan nan nan 193 193 193 193 196 196 208 236 237 247 254 251 242 233 231 235 241 242 242 241 241 244 248 246 246 245 244 241 236 239 245 248 251 254 257 262 267 272 275 279 281 280 279 277 274 273 278 282 282 281 282 nan nan 280 nan nan nan 284 287
nan nan nan nan nan nan nan 196 nan nan 202 nan nan nan nan nan nan nan nan nan nan 204 nan nan nan nan nan nan 198 197 200 196 193 195 200 202 213 236 247 248 244 233 230 236 242 245 244 241 241 242 242 244 241 239 240 237 238 240 243 245 249 253 257 264 268 271 276 280 281 279 276 276 275 277 281 283 281 279 276 275 280 nan nan nan nan nan 286
nan nan nan nan nan nan nan nan nan 191 195 202 nan nan nan nan nan nan nan nan nan nan nan nan nan nan nan nan nan nan 192 206 203 192 193 208 213 210 213 224 230 235 239 239 233 229 228 231 231 232 230 229 231 231 235 237 237 240 242 245 248 252 258 263 266 271 276 279 280 278 277 277 277 278 279 276 279 279 279 283 286 286 nan nan nan nan nan
nan nan nan nan nan nan nan nan nan 194 200 202 201 205 214 227 217 nan nan nan nan nan nan nan nan nan nan nan nan nan nan nan 210 200 195 207 207 218 224 223 227 228 231 235 237 238 234 232 230 233 234 235 236 233 233 237 237 240 243 246 248 252 258 263 269 272 274 274 276 276 277 278 281 281 277 278 280 277 277 278 279 279 277 nan nan nan nan
nan nan nan nan nan nan nan nan nan nan 198 193 202 209 200 219 215 218 201 nan nan nan nan nan nan nan nan nan nan nan nan nan nan 212 198 207 216 208 209 222 218 222 227 226 226 228 230 232 234 233 231 233 234 233 233 234 238 241 245 248 251 256 259 263 268 271 273 275 276 278 279 281 281 279 276 275 275 276 280 280 281 281 281 280 280 nan nan
nan nan nan nan nan nan nan nan nan nan 193 201 201 213 212 227 215 227 218 204 175 145 nan nan nan nan nan nan nan nan nan nan nan 211 197 201 212 216 210 205 206 205 213 220 221 224 230 233 234 233 234 236 235 233 233 234 240 243 247 250 252 255 259 264 266 269 272 275 278 280 282 286 282 275 275 279 285 284 287 285 283 282 281 280 280 283 288
nan nan nan nan nan nan nan nan nan nan nan nan nan 225 222 233 221 222 234 221 166 118 158 173 nan nan nan nan nan nan nan nan nan nan 196 190 203 206 211 218 218 215 219 231 232 228 232 235 233 235 237 238 235 232 231 235 241 245 246 249 254 257 258 262 264 265 269 275 280 284 285 288 291 287 283 285 287 290 288 284 283 281 281 282 281 280 283
nan nan nan nan nan nan nan nan nan nan nan nan nan nan nan 232 221 223 226 212 192 167 144 164 191 nan nan nan nan nan nan 192 196 nan 192 185 192 203 205 207 219 227 230 234 233 238 244 243 239 238 236 235 234 231 230 235 240 244 248 248 247 250 252 257 261 267 275 284 287 288 295 298 293 287 275 274 285 292 287 283 281 280 280 281 282 nan nan
nan nan nan nan nan nan nan nan nan nan nan nan nan nan 219 211 212 218 222 207 196 223 161 154 168 nan nan nan nan nan nan 188 196 191 189 193 202 213 221 222 224 226 234 246 250 258 253 246 238 237 235 234 231 228 230 235 241 240 241 244 246 245 248 254 260 269 274 280 281 280 286 291 294 290 283 282 285 289 287 281 279 278 279 275 nan 277 279
nan nan nan nan nan nan nan nan nan nan 221 227 nan nan 209 207 208 213 218 215 211 210 216 144 118 143 158 174 190 189 nan nan 184 206 205 196 195 202 222 235 233 233 240 244 247 248 246 250 245 240 237 235 230 228 229 234 236 237 240 244 246 249 252 259 266 272 277 274 273 279 283 283 287 290 285 285 287 289 284 282 283 281 nan nan nan nan 280
nan nan nan nan nan nan nan nan nan nan nan 241 nan nan nan 212 210 213 218 228 224 231 217 199 147 136 144 173 191 202 213 207 193 187 190 197 220 230 213 209 219 242 239 241 244 246 244 248 245 241 240 236 230 228 230 233 233 236 240 243 247 252 259 263 267 271 273 278 279 277 282 287 288 287 283 283 282 280 279 278 280 281 281 279 279 280 280
nan nan nan nan nan nan nan nan nan nan nan nan nan nan nan nan 215 217 224 224 235 233 237 220 203 173 143 156 191 204 204 205 204 206 208 206 194 192 211 245 233 234 235 235 238 239 241 242 240 237 238 233 229 229 228 228 233 236 240 244 247 252 257 261 265 267 269 272 277 279 284 286 287 285 283 281 279 277 278 280 281 282 281 281 281 282 284
nan nan nan nan nan nan nan nan nan nan nan nan nan nan nan nan nan 227 224 223 224 234 237 235 232 213 184 171 186 216 206 206 208 210 205 203 209 205 188 195 226 225 228 230 232 233 235 239 234 231 229 231 229 228 223 227 233 236 240 245 249 253 258 262 268 267 268 272 277 279 281 284 285 282 280 278 276 274 279 279 281 282 282 283 287 287 285
nan nan nan nan nan nan nan nan nan nan nan nan nan nan nan nan nan 218 223 223 227 232 241 239 239 230 207 202 207 212 215 214 217 217 211 209 209 209 205 194 201 216 223 228 231 233 231 232 230 226 224 228 231 224 224 225 230 236 239 244 249 253 255 258 261 262 265 268 272 276 279 279 281 281 282 281 280 278 277 278 279 281 281 283 283 284 284
nan nan nan nan nan nan nan nan nan nan nan nan nan nan nan nan nan nan 205 220 227 234 233 242 242 229 216 220 224 225 222 215 215 219 224 224 216 217 224 223 205 202 219 224 226 232 232 227 226 221 220 219 222 222 223 225 229 236 242 246 247 250 252 252 254 262 269 270 269 268 270 268 269 272 275 277 278 278 277 278 278 278 280 283 282 283 288
nan nan nan nan nan nan nan nan nan nan nan nan nan nan nan nan nan 208 nan nan 221 229 229 232 238 232 228 231 234 234 233 230 228 228 231 234 232 226 239 249 236 212 203 205 216 220 221 220 221 215 214 214 215 218 223 229 233 239 244 249 253 255 259 259 261 264 267 271 273 270 270 272 272 269 270 273 276 278 279 279 280 281 285 288 291 293 293
nan nan nan nan nan nan nan 281 nan nan nan nan nan nan nan nan nan nan nan 219 nan 226 226 227 229 230 235 236 240 242 239 237 237 240 239 241 242 238 243 250 252 231 218 217 216 218 218 218 221 218 214 209 214 222 225 230 236 241 244 249 252 254 256 258 260 261 264 267 267 269 269 268 269 273 277 276 275 274 273 278 285 291 293 292 291 290 291
nan nan nan nan nan nan nan nan nan nan nan nan nan nan nan nan nan nan nan nan nan nan nan 229 230 232 237 235 236 240 240 241 244 246 244 243 246 243 241 245 243 242 232 224 220 209 204 210 213 209 206 207 213 221 227 232 237 242 246 249 254 258 259 259 257 259 259 260 263 267 268 268 266 256 247 257 265 273 276 277 278 279 285 292 295 293 nan
nan nan nan nan nan nan nan nan nan nan nan nan nan nan nan nan nan nan nan nan nan nan nan 228 233 232 237 238 240 243 242 243 241 240 241 242 245 247 249 246 241 236 235 222 218 217 213 212 211 206 200 198 205 216 227 233 241 246 251 252 255 257 258 259 263 262 262 262 263 263 262 263 263 264 262 256 262 275 279 282 285 287 290 nan nan nan nan
nan nan nan nan nan nan nan nan nan 154 173 nan nan nan nan nan nan nan nan nan 162 217 219 224 226 229 235 240 245 251 249 244 240 238 236 236 232 241 248 248 243 237 231 224 217 nan 214 211 206 201 198 193 205 215 225 238 247 253 257 258 259 259 257 255 259 259 260 263 263 263 264 267 270 273 275 275 269 269 280 289 290 nan nan nan nan nan nan
nan nan nan nan nan nan 45 59 278 269 172 nan nan nan nan nan nan nan nan nan 243 245 236 229 222 226 234 238 242 250 256 248 244 242 241 238 234 237 244 247 235 225 222 226 220 218 213 209 207 200 197 195 207 223 232 240 246 254 261 262 260 256 255 258 259 261 262 264 265 268 272 274 276 280 284 285 287 286 276 278 nan nan nan nan nan nan nan
nan nan nan nan nan nan 237 250 284 317 174 nan nan nan nan nan nan nan nan nan 222 231 235 238 236 231 235 238 238 240 248 252 245 245 243 245 240 243 250 250 240 225 219 218 214 212 213 214 207 202 202 208 218 227 235 243 248 253 253 256 261 262 262 265 266 265 265 268 271 273 275 279 283 286 287 286 287 287 289 286 283 nan nan nan nan nan nan
nan nan nan nan nan nan nan nan 272 302 nan nan nan nan nan nan nan nan nan nan 231 220 228 235 245 240 237 236 239 240 242 nan 248 242 nan 243 nan nan nan nan 249 239 220 219 214 220 215 206 206 210 213 213 219 229 237 243 248 249 250 252 252 253 265 267 266 268 269 271 274 276 279 284 287 289 289 288 288 290 293 294 294 nan nan nan 291 296 nan
nan nan nan nan nan nan nan nan nan 269 285 nan nan nan nan nan nan nan nan 215 220 216 220 228 236 238 238 233 238 243 243 227 226 nan 243 239 nan 236 239 nan 246 244 231 212 206 206 207 214 215 213 212 215 223 229 237 242 247 250 252 253 254 257 260 261 261 263 269 274 278 283 287 288 288 288 287 286 287 288 285 284 287 288 288 290 289 286 294
nan nan nan nan nan nan nan nan nan 247 nan nan nan nan nan nan nan nan nan 238 228 221 213 215 228 236 244 241 242 247 239 222 218 229 248 238 227 230 233 238 241 235 226 224 219 211 204 213 211 212 211 217 224 229 235 239 243 247 249 250 252 254 257 261 265 269 274 278 282 285 285 286 288 288 288 289 289 nan 288 nan 290 290 291 288 nan nan nan
nan nan nan nan nan nan nan nan nan nan nan nan nan nan nan nan nan nan nan 235 236 231 216 217 227 237 248 252 248 253 249 233 225 237 249 235 220 225 229 224 219 223 228 234 236 228 212 213 220 222 224 223 227 228 232 235 238 241 245 249 254 259 262 264 265 269 274 279 282 284 287 288 288 290 nan nan nan nan nan nan nan nan nan nan nan nan nan
nan nan nan nan nan nan nan nan nan nan 242 nan nan nan nan nan 258 256 246 245 246 239 223 222 223 229 238 247 248 245 245 241 238 240 236 218 209 208 204 203 212 204 225 237 231 215 206 217 227 234 233 235 235 236 235 237 239 242 244 247 250 257 266 271 272 275 278 281 284 286 286 nan nan nan nan nan nan nan nan nan nan nan nan nan nan nan nan
nan nan nan nan nan nan nan nan nan 245 244 nan nan nan nan nan 254 254 253 247 245 245 nan 229 223 221 226 235 241 243 245 244 242 241 235 226 221 217 210 204 214 233 234 230 227 232 216 218 238 233 235 240 244 242 243 247 250 253 256 258 261 263 268 274 273 277 279 282 284 nan 286 287 nan nan nan nan nan nan nan nan nan nan nan nan nan nan nan
nan nan nan nan nan nan nan nan 242 244 nan nan nan nan nan nan nan 249 nan nan nan 239 242 238 234 228 227 232 236 236 239 242 242 243 245 245 246 248 246 247 251 255 256 246 242 242 251 250 252 255 253 243 241 251 253 256 258 261 262 265 267 270 274 277 278 279 278 281 283 285 nan nan nan nan nan nan nan nan nan nan nan nan nan nan nan nan nan
nan nan nan nan nan nan nan nan nan nan nan nan nan nan nan nan nan nan nan nan nan 239 240 244 241 237 234 236 236 236 237 239 237 237 242 250 254 257 260 261 260 260 255 250 252 257 259 262 258 261 263 263 258 261 264 264 264 267 270 272 274 276 278 278 280 280 280 nan nan nan nan nan nan nan nan nan nan nan nan nan nan nan nan nan nan nan nan
nan nan nan nan nan nan nan nan nan nan nan nan nan nan nan nan nan nan nan nan nan nan nan 247 243 240 239 238 239 239 239 239 236 237 237 246 256 260 262 263 260 260 263 263 271 278 277 276 274 274 273 270 270 270 272 273 271 271 272 274 278 280 280 281 282 nan nan nan nan nan nan nan nan nan nan nan nan nan nan nan nan nan nan nan nan nan nan
nan nan nan nan nan nan nan nan nan nan nan nan nan nan nan nan nan nan nan nan nan nan nan nan nan 244 nan 239 240 238 239 243 247 249 249 251 257 265 267 266 266 266 269 270 273 281 285 282 282 281 276 275 275 275 275 274 273 273 274 277 280 281 nan nan nan nan nan nan nan nan nan nan nan nan nan nan nan nan nan nan nan nan nan nan nan nan nan
nan nan nan nan nan nan nan nan nan nan nan nan nan nan nan nan nan nan nan nan nan nan nan nan nan nan nan nan 245 242 239 239 237 241 249 254 258 259 262 263 264 266 266 270 266 271 280 279 285 288 282 282 283 281 279 282 276 274 276 nan nan nan nan nan nan nan nan nan nan nan nan nan nan nan nan nan nan nan nan nan nan nan nan nan nan nan nan
nan nan nan nan nan nan nan nan nan nan nan nan nan nan nan nan nan nan nan nan nan nan nan nan nan nan nan nan nan 241 240 240 249 250 251 253 255 256 250 254 256 258 259 258 257 262 269 278 287 285 281 281 281 279 282 284 282 nan nan nan nan nan nan nan nan nan nan nan nan nan nan nan nan nan nan nan nan nan nan nan nan nan nan nan nan nan nan
nan nan nan nan nan nan nan nan nan nan nan nan nan nan nan nan nan nan nan nan nan nan nan nan nan nan nan nan nan nan nan 245 252 257 255 253 250 254 253 253 252 254 257 261 nan nan 270 269 270 nan nan nan nan nan nan nan 287 283 nan nan nan nan nan nan nan nan nan nan nan nan nan nan nan nan nan nan nan nan nan nan nan nan nan nan nan nan nan
nan nan nan nan nan nan nan nan nan nan nan nan nan nan nan nan nan nan nan nan nan nan nan nan nan nan nan nan nan nan nan 248 256 256 257 257 257 260 258 250 248 247 249 nan nan nan nan 268 269 268 266 nan nan 280 nan nan nan 284 287 nan nan nan nan nan nan nan nan nan nan nan nan nan nan nan nan nan nan nan nan nan nan nan nan nan nan nan nan
nan nan nan nan nan nan nan nan nan nan nan nan nan nan nan nan nan nan nan nan nan nan nan nan nan nan nan nan nan nan nan nan nan 253 254 257 255 256 260 256 250 250 250 252 nan nan nan nan 270 272 272 278 nan 280 281 285 283 nan 287 286 nan nan nan nan nan nan nan nan nan nan nan nan nan nan nan nan nan nan nan nan nan nan nan nan nan nan nan
nan nan nan nan nan nan nan nan nan nan nan nan nan nan nan nan nan nan nan nan nan nan nan nan nan nan nan nan nan nan nan nan nan 248 246 249 255 261 262 255 247 247 247 nan nan nan nan nan nan nan nan nan nan nan nan nan nan nan nan nan nan nan nan nan nan nan nan nan nan nan nan nan nan nan nan nan nan nan nan nan nan nan nan nan nan nan nan
nan nan nan nan nan nan nan nan nan nan nan nan nan nan nan nan nan nan nan nan nan nan nan nan nan nan nan nan nan nan nan nan nan 249 nan nan nan nan 253 251 245 246 247 250 nan nan nan nan nan nan nan nan nan nan nan nan nan nan nan nan nan nan nan nan nan nan nan nan nan nan nan nan nan nan nan nan nan nan nan nan nan nan nan nan nan nan nan
nan nan nan nan nan nan nan nan nan nan nan nan nan nan nan nan nan nan nan nan nan nan nan nan nan nan nan nan nan nan nan nan 253 250 nan nan nan nan nan 243 246 244 246 250 nan nan nan nan nan nan nan nan nan nan nan nan nan nan nan nan nan nan nan nan nan nan nan nan nan nan nan nan nan nan nan nan nan nan nan nan nan nan nan nan nan nan nan
nan nan nan nan nan nan nan nan nan nan nan nan nan nan nan nan nan nan nan nan nan nan nan nan nan nan nan nan nan nan nan nan nan nan nan nan nan nan nan nan nan nan nan nan nan nan nan nan nan nan nan nan nan nan nan nan nan nan nan nan nan nan nan nan nan nan nan nan nan nan nan nan nan nan nan nan nan nan nan nan nan nan nan nan nan nan nan
nan nan nan nan nan nan nan nan nan nan nan nan nan nan nan nan nan nan nan nan nan nan nan nan nan nan nan nan nan nan nan nan nan nan nan nan nan nan nan nan nan nan nan nan nan nan nan nan nan nan nan nan nan nan nan nan nan nan nan nan nan nan nan nan nan nan nan nan nan nan nan nan nan nan nan nan nan nan nan nan nan nan nan nan nan nan nan
nan nan nan nan nan nan nan nan nan nan nan nan nan nan nan nan nan nan nan nan nan nan nan nan nan nan nan nan nan nan nan nan nan nan nan nan nan nan nan nan nan nan nan nan nan nan nan nan nan nan nan nan nan nan nan nan nan nan nan nan nan nan nan nan nan nan nan nan nan nan nan nan nan nan nan nan nan nan nan nan nan nan nan nan nan nan nan
nan nan nan nan nan nan nan nan nan nan nan nan nan nan nan nan nan nan nan nan nan nan nan nan nan nan nan nan nan nan nan nan nan nan nan nan nan nan nan nan nan nan nan nan nan nan nan nan nan nan nan nan nan nan nan nan nan nan nan nan nan nan nan nan nan nan nan nan nan nan nan nan nan nan nan nan nan nan nan nan nan nan nan nan nan nan nan
nan nan nan nan nan nan nan nan nan nan nan nan nan nan nan nan nan nan nan nan nan nan nan nan nan nan nan nan nan nan nan nan nan nan nan nan nan nan nan nan nan nan nan nan nan nan nan nan nan nan nan nan nan nan nan nan nan nan nan nan nan nan nan nan nan nan nan nan nan nan nan nan nan nan nan nan nan nan nan nan nan nan nan nan nan nan nan
nan nan nan nan nan nan nan nan nan nan nan nan nan nan nan nan nan nan nan nan nan nan nan nan nan nan nan nan nan nan nan nan nan nan nan nan nan nan nan nan nan nan nan nan nan nan nan nan nan nan nan nan nan nan nan nan nan nan nan nan nan nan nan nan nan nan nan nan nan nan nan nan nan nan nan nan nan nan nan nan nan nan nan nan nan nan nan
nan nan nan nan nan nan nan nan nan nan nan nan nan nan nan nan nan nan nan nan nan nan nan nan nan nan nan nan nan nan nan nan nan nan nan nan nan nan nan nan nan nan nan nan nan nan nan nan nan nan nan nan nan nan nan nan nan nan nan nan nan nan nan nan nan nan nan nan nan nan nan nan nan nan nan nan nan nan nan nan nan nan nan nan nan nan nan
nan nan nan nan nan nan nan nan nan nan nan nan nan nan nan nan nan nan nan nan nan nan nan nan nan nan nan nan nan nan nan nan nan nan nan nan nan nan nan nan nan nan nan nan nan nan nan nan nan nan nan nan nan nan nan nan nan nan nan nan nan nan nan nan nan nan nan nan nan nan nan nan nan nan nan nan nan nan nan nan nan nan nan nan nan nan nan